Flag for Germany Weather past 2 weeks in Bitterfeld-Wolfen, Saxony-Anhalt, Germany

Now
63 °F

Broken clouds.


Feels Like: 63 °F
Forecast: 51 / 60 °F
Wind: 20 mph from Southwest

Location: Leipzig-Schkeuditz

Current Time: Oct 20, 2014 at 4:11:40 PM

Latest Report: Oct 20, 2014 at 3:20 PM


Visibility: N/A

Pressure: 29.95 "Hg

Humidity: 64%

Dew point: 50 °F

Location of Bitterfeld-WolfenLocation

Historic Weather in Bitterfeld-Wolfen — Graph

°F

Bitterfeld-Wolfen temperature yesterday

Maximum temperature yesterday: 73 °F (at 2:20 PM)
Minimum temperature yesterday: 52 °F (at 1:50 AM)
Average temperature yesterday: 61 °F

Past Weeks' High & Low Weather Summary

 TemperatureHumidityPressure
High73 °F (Oct 9, 3:20 PM)100% (Oct 6, 4:20 AM)30.21 "Hg (Oct 6, 4:20 AM)
Low46 °F (Oct 7, 3:50 AM)52% (Oct 15, 3:50 PM)29.68 "Hg (Oct 16, 2:50 PM)
Average58 °F86%29.89 "Hg
* Reported Oct 5 2:20 PM — Oct 20 2:50 PM, Bitterfeld-Wolfen, Weather by CustomWeather, © 2014

Note: Actual official high and low records may vary slightly from our data, if they occured in-between our weather recording intervals... More about our weather records

Advertising

Bitterfeld-Wolfen weather history for previous 24 hours

 ConditionsComfort  
Time TempWeatherWind HumidityBarometerVisibility
2:50 PM
Oct 20
63 °FBroken clouds.24 mph68%29.95 "HgN/A
2:20 PM63 °FBroken clouds.23 mph64%29.95 "HgN/A
1:50 PM63 °FBroken clouds.20 mph64%29.98 "HgN/A
1:20 PM63 °FBroken clouds.21 mph64%29.98 "HgN/A
12:50 PM63 °FBroken clouds.21 mph68%29.98 "HgN/A
12:20 PM61 °FBroken clouds.23 mph72%29.98 "HgN/A
11:50 AM61 °FBroken clouds.22 mph72%29.98 "HgN/A
11:20 AM59 °FSunny.20 mph77%29.98 "Hg10 mi
10:50 AM57 °FPartly sunny.18 mph82%29.98 "HgN/A
10:20 AM57 °FBroken clouds.18 mph82%29.98 "HgN/A
9:50 AM57 °FBroken clouds.15 mph88%29.98 "HgN/A
9:20 AM57 °FBroken clouds.16 mph82%29.98 "HgN/A
8:50 AM55 °FBroken clouds.12 mph88%29.98 "HgN/A
8:20 AM55 °FPartly cloudy.13 mph88%29.98 "HgN/A
7:50 AM55 °FPartly cloudy.14 mph88%29.98 "HgN/A
7:20 AM54 °FPartly cloudy.12 mph94%29.98 "HgN/A
6:50 AM55 °FPassing clouds.12 mph88%29.98 "HgN/A
5:20 AM57 °FFog.5 mph100%29.95 "HgN/A
4:50 AM57 °FPassing clouds.5 mph100%29.98 "HgN/A
4:20 AM57 °FPartly cloudy.6 mph100%29.95 "HgN/A
3:50 AM57 °FPartly cloudy.6 mph94%29.98 "HgN/A
3:20 AM57 °FLight rain. Partly cloudy.8 mph100%29.98 "HgN/A
2:50 AM57 °FLight rain. Partly cloudy.9 mph100%29.95 "HgN/A
2:20 AM57 °FLight rain. Partly cloudy.9 mph94%29.98 "HgN/A
1:50 AM57 °FLight rain. Passing clouds.16 mph100%29.98 "HgN/A
1:20 AM59 °FLight rain. Passing clouds.14 mph82%29.98 "HgN/A
12:50 AM61 °FPassing clouds.15 mph72%29.98 "HgN/A
12:20 AM63 °FClear.12 mph88%29.98 "Hg10 mi
11:50 PM
Oct 19
63 °FClear.15 mph83%29.95 "Hg10 mi
11:20 PM64 °FClear.17 mph83%29.95 "Hg10 mi
10:50 PM64 °FClear.17 mph83%29.95 "Hg10 mi
10:20 PM64 °FClear.18 mph78%29.95 "Hg10 mi
9:50 PM63 °FClear.9 mph83%29.95 "Hg10 mi
9:20 PM64 °FClear.12 mph78%29.95 "Hg10 mi
8:50 PM64 °FClear.14 mph78%29.95 "Hg10 mi
8:20 PM64 °FClear.14 mph78%29.95 "Hg10 mi
7:50 PM64 °FClear.14 mph78%29.95 "Hg10 mi
7:20 PM63 °FClear.13 mph83%29.98 "Hg10 mi
6:50 PM66 °FSunny.14 mph73%29.98 "Hg10 mi
6:20 PM64 °FSunny.12 mph78%29.98 "Hg10 mi
5:50 PM68 °FSunny.16 mph69%29.98 "Hg10 mi
5:20 PM68 °FSunny.17 mph69%29.98 "Hg10 mi
4:50 PM70 °FSunny.20 mph64%29.98 "Hg10 mi
4:20 PM72 °FSunny.21 mph61%29.98 "Hg10 mi
Weather by CustomWeather, © 2014

See weather overviewHow to use our weather pages